Location: Melbourne
(37.8170°S, 144.9670°E)
Time: 17:05:56
(UTC+10:00)

Transit 2A - All Passes

Search period start: 28 August 2014 00:00
Search period end: 07 September 2014 00:00
Orbit: 602 x 961 km, 66.7° (Epoch: 26 August)

Date Brightness Start Highest point End Pass type
(mag) Time Alt. Az. Time Alt. Az. Time Alt. Az.
28 Aug - 03:34:34 10° NE 03:38:37 18° ENE 03:42:47 10° ESE visible
28 Aug - 05:15:03 10° NW 05:21:15 71° WSW 05:27:41 10° SSE visible
28 Aug - 07:02:16 10° WSW 07:05:44 15° SW 07:09:13 10° S daylight
28 Aug - 12:23:49 10° SSE 12:26:27 13° SE 12:29:00 10° ESE daylight
28 Aug - 14:05:06 10° SSW 14:10:59 70° ESE 14:16:13 10° NE daylight
28 Aug - 15:50:31 10° WSW 15:53:23 14° W 15:56:06 10° NW daylight
29 Aug - 03:03:07 10° ENE 03:05:25 12° E 03:07:45 10° ESE visible
29 Aug - 04:41:32 10° NNW 04:47:44 85° ENE 04:54:12 10° SSE visible
29 Aug - 06:27:25 10° W 06:31:52 20° SW 06:36:21 10° S daylight
29 Aug - 13:31:42 10° SSW 13:37:24 49° ESE 13:42:31 10° NE daylight
29 Aug - 15:15:58 10° WSW 15:20:10 22° WNW 15:24:05 10° NNW daylight
30 Aug - 04:08:12 10° NNW 04:14:17 61° ENE 04:20:36 10° SE visible
30 Aug - 05:52:55 10° WNW 05:58:03 26° SW 06:03:17 10° S visible
30 Aug - 12:58:23 10° SSW 13:03:45 35° SE 13:08:36 10° ENE daylight
30 Aug - 14:41:54 10° SW 14:46:55 32° WNW 14:51:28 10° N daylight
31 Aug - 03:35:06 10° N 03:40:53 43° ENE 03:46:54 10° SE visible
31 Aug - 05:18:40 10° WNW 05:24:19 34° SW 05:30:05 10° SSE visible
31 Aug - 12:25:10 10° S 12:30:01 26° SE 12:34:28 10° ENE daylight
31 Aug - 14:08:05 10° SW 14:13:35 48° WNW 14:18:31 10° N daylight
01 Sep - 03:02:15 10° NNE 03:07:33 31° ENE 03:13:02 10° SE visible
01 Sep - 04:44:39 10° NW 04:50:39 46° SW 04:56:48 10° SSE visible
01 Sep - 11:52:06 10° S 11:56:13 19° SE 12:00:03 10° E daylight
01 Sep - 13:34:25 10° SSW 13:40:11 71° WNW 13:45:19 10° NNE daylight
02 Sep - 02:29:45 10° NNE 02:34:17 21° ENE 02:38:54 10° ESE visible
02 Sep - 04:10:51 10° NW 04:17:02 63° WSW 04:23:25 10° SSE visible
02 Sep - 05:58:42 10° WSW 06:01:39 13° SW 06:04:37 10° SSW visible
02 Sep - 11:19:17 10° S 11:22:20 14° SE 11:25:16 10° ESE daylight
02 Sep - 13:00:52 10° SSW 13:06:43 80° ESE 13:11:54 10° NNE daylight
02 Sep - 14:47:07 10° W 14:48:58 12° W 14:50:45 10° WNW daylight
03 Sep - 01:57:51 10° NE 02:01:03 15° ENE 02:04:17 10° ESE visible
03 Sep - 03:37:15 10° NNW 03:43:30 85° WSW 03:49:58 10° SSE visible
03 Sep - 05:23:38 10° W 05:27:45 18° SW 05:31:53 10° S visible
03 Sep - 10:47:14 10° SSE 10:48:23 11° SE 10:49:32 10° SE daylight
03 Sep - 12:27:26 10° SSW 12:33:10 55° ESE 12:38:16 10° NE daylight
03 Sep - 14:12:05 10° WSW 14:15:46 18° WNW 14:19:14 10° NW daylight
04 Sep - 03:03:50 10° NNW 03:10:01 70° ENE 03:16:24 10° SSE visible
04 Sep - 04:49:00 10° W 04:53:55 23° SW 04:58:53 10° S visible
04 Sep - 11:54:05 10° SSW 11:59:32 39° SE 12:04:26 10° ENE daylight
04 Sep - 13:37:52 10° SW 13:42:32 27° WNW 13:46:48 10° NNW daylight
05 Sep - 02:30:38 10° N 02:36:36 50° ENE 02:42:45 10° SE visible
05 Sep - 04:14:39 10° WNW 04:20:09 30° SW 04:25:43 10° S visible
05 Sep - 11:20:50 10° S 11:25:49 28° SE 11:30:22 10° ENE daylight
05 Sep - 13:03:57 10° SW 13:09:14 40° WNW 13:13:58 10° N daylight
06 Sep - 01:57:41 10° N 02:03:14 35° ENE 02:08:57 10° SE visible
06 Sep - 03:40:33 10° WNW 03:46:27 41° SW 03:52:28 10° SSE visible
06 Sep - 10:47:42 10° S 10:52:02 21° SE 10:56:04 10° E daylight
06 Sep - 12:30:14 10° SW 12:35:51 61° WNW 12:40:52 10° NNE daylight
